Weather History for Rolla, ND

Change the Weather History Date:

Friday, February 22, 2013

  Actual Average (KRUG) Record (KRUG)
Temperature  
Mean Temperature 7 °F -  
Max Temperature 14 °F 29 °F 48 °F (1958)
Min Temperature 0 °F 9 °F -22 °F (1989)
Degree Days  
Heating Degree Days 58    
Moisture  
Dew Point 3 °F    
Average Humidity 81    
Maximum Humidity 92    
Minimum Humidity 67    
Precipitation  
Precipitation 0.00 in - - ()
Sea Level Pressure  
Sea Level Pressure 29.96 in    
Wind  
Wind Speed 7 mph (SSW)    
Max Wind Speed 10 mph    
Max Gust Speed -    
Visibility 10 miles    
Events      
Averages and records for this station are not official NWS values.
T = Trace of Precipitation, MM = Missing Value Source: NWS Daily Summary

Daily Weather History Graph

Daily Weather History Graph

Search for Another Location

Airport:

Trip Planner

Search our weather history database for the weather conditions in past years. The results will help you decide how hot, cold, wet, or windy it might be!

Date:

Astronomy

Feb. 22, 2013 Rise Set
Actual Time 7:33 AM CST 6:11 PM CST
Civil Twilight 7:01 AM CST 6:43 PM CST
Nautical Twilight 6:24 AM CST 7:20 PM CST
Astronomical Twilight 5:48 AM CST 7:56 PM CST
Moon 3:14 PM CST (2/22) 5:30 AM CST (2/22)
Length of Visible Light 11h 42m
Length of Day
10h 37m
Waxing Gibbous, 90% of the Moon is Illuminated
Feb 22
Waxing Gibbous
Feb 25
Full
Mar 4
Last Quarter
Mar 11
New
Mar 19
First Quarter

Hourly Weather History & Observations

Time (CST) Temp. Windchill Dew Point Humidity Pressure Visibility Wind Dir Wind Speed Gust Speed Precip Events Conditions
12:15 AM 3.2 °F -6.2 °F 1.4 °F 92% 30.11 in 10.0 mi South 4.6 mph - N/A   Overcast
12:35 AM 3.2 °F -7.8 °F 1.4 °F 92% 30.10 in 10.0 mi South 5.8 mph - N/A   Overcast
12:55 AM 3.2 °F -7.8 °F 1.4 °F 92% 30.10 in 10.0 mi South 5.8 mph - N/A   Overcast
1:15 AM 3.2 °F -9.1 °F 1.4 °F 92% 30.10 in 10.0 mi South 6.9 mph - N/A   Overcast
1:35 AM 1.4 °F -8.3 °F -0.4 °F 92% 30.09 in 10.0 mi SW 4.6 mph - N/A   Mostly Cloudy
1:55 AM 3.2 °F -7.8 °F 1.4 °F 92% 30.09 in 10.0 mi South 5.8 mph - N/A   Overcast
2:15 AM 3.2 °F - 1.4 °F 92% 30.08 in 10.0 mi North - - N/A   Overcast
2:35 AM 3.2 °F - -0.4 °F 85% 30.08 in 10.0 mi North - - N/A   Overcast
2:55 AM 3.2 °F - -0.4 °F 85% 30.08 in 10.0 mi North - - N/A   Overcast
3:15 AM 1.4 °F - -0.4 °F 92% 30.07 in 10.0 mi North - - N/A   Overcast
3:35 AM -0.4 °F -14.7 °F -4.0 °F 85% 30.07 in 10.0 mi SSW 8.1 mph - N/A   Overcast
4:15 AM 1.4 °F -14.5 °F -0.4 °F 92% 30.06 in 10.0 mi SSW 10.4 mph - N/A   Overcast
4:35 AM 3.2 °F -10.3 °F 1.4 °F 92% 30.06 in 10.0 mi South 8.1 mph - N/A   Overcast
4:55 AM 3.2 °F -7.8 °F -0.4 °F 85% 30.05 in 10.0 mi South 5.8 mph - N/A   Overcast
5:15 AM 5.0 °F - 1.4 °F 85% 30.05 in 10.0 mi North - - N/A   Overcast
5:35 AM 5.0 °F -9.1 °F 1.4 °F 85% 30.05 in 10.0 mi SSW 9.2 mph - N/A   Overcast
5:55 AM 6.8 °F -5.9 °F 1.4 °F 79% 30.04 in 10.0 mi SSW 8.1 mph - N/A   Overcast
6:15 AM 6.8 °F -4.8 °F 1.4 °F 79% 30.04 in 10.0 mi SSW 6.9 mph - N/A   Overcast
6:35 AM 5.0 °F -8.1 °F 1.4 °F 85% 30.04 in 10.0 mi SSW 8.1 mph - N/A   Overcast
6:55 AM 5.0 °F -6.9 °F -0.4 °F 78% 30.03 in 10.0 mi WSW 6.9 mph - N/A   Overcast
7:35 AM 6.8 °F -3.5 °F 1.4 °F 79% 30.02 in 10.0 mi SSW 5.8 mph - N/A   Overcast
7:55 AM 6.8 °F -4.8 °F 1.4 °F 79% 30.01 in 10.0 mi South 6.9 mph - N/A   Mostly Cloudy
8:15 AM 8.6 °F -3.7 °F 1.4 °F 73% 30.01 in 10.0 mi South 8.1 mph - N/A   Partly Cloudy
8:35 AM 8.6 °F -3.7 °F 1.4 °F 73% 30.00 in 10.0 mi SSW 8.1 mph - N/A   Clear
8:55 AM 8.6 °F -2.6 °F 3.2 °F 79% 30.00 in 10.0 mi SSW 6.9 mph - N/A   Clear
9:15 AM 8.6 °F -3.7 °F 3.2 °F 79% 29.99 in 10.0 mi SSW 8.1 mph - N/A   Clear
9:35 AM 10.4 °F -1.5 °F 3.2 °F 73% 29.99 in 10.0 mi South 8.1 mph - N/A   Clear
9:55 AM 10.4 °F -1.5 °F 3.2 °F 73% 29.99 in 10.0 mi SSW 8.1 mph - N/A   Clear
10:15 AM 10.4 °F -0.4 °F 5.0 °F 79% 29.99 in 10.0 mi South 6.9 mph - N/A   Clear
10:35 AM 10.4 °F -2.4 °F 5.0 °F 79% 29.99 in 10.0 mi SSW 9.2 mph - N/A   Clear
10:55 AM 10.4 °F -1.5 °F 5.0 °F 79% 29.98 in 10.0 mi South 8.1 mph - N/A   Clear
11:15 AM 10.4 °F -2.4 °F 5.0 °F 79% 29.98 in 10.0 mi SSW 9.2 mph - N/A   Clear
11:35 AM 10.4 °F -2.4 °F 5.0 °F 79% 29.98 in 10.0 mi SSW 9.2 mph - N/A   Scattered Clouds
11:55 AM 12.2 °F 0.7 °F 5.0 °F 73% 29.97 in 10.0 mi SSW 8.1 mph - N/A   Mostly Cloudy
12:15 PM 12.2 °F 0.7 °F 5.0 °F 73% 29.96 in 10.0 mi South 8.1 mph - N/A   Mostly Cloudy
12:35 PM 12.2 °F 0.7 °F 5.0 °F 73% 29.96 in 10.0 mi SSW 8.1 mph - N/A   Mostly Cloudy
12:55 PM 14.0 °F 3.9 °F 6.8 °F 73% 29.95 in 10.0 mi South 6.9 mph - N/A   Partly Cloudy
1:15 PM 14.0 °F 3.9 °F 6.8 °F 73% 29.95 in 10.0 mi South 6.9 mph - N/A   Mostly Cloudy
1:35 PM 14.0 °F 3.9 °F 6.8 °F 73% 29.94 in 10.0 mi South 6.9 mph - N/A   Overcast
1:55 PM 14.0 °F 2.9 °F 6.8 °F 73% 29.94 in 10.0 mi South 8.1 mph - N/A   Mostly Cloudy
2:15 PM 14.0 °F 2.9 °F 6.8 °F 73% 29.93 in 10.0 mi South 8.1 mph - N/A   Mostly Cloudy
2:35 PM 14.0 °F 3.9 °F 6.8 °F 73% 29.92 in 10.0 mi South 6.9 mph - N/A   Scattered Clouds
2:55 PM 14.0 °F 2.9 °F 8.6 °F 79% 29.92 in 10.0 mi SSW 8.1 mph - N/A   Clear
3:15 PM 14.0 °F 3.9 °F 8.6 °F 79% 29.92 in 10.0 mi SSW 6.9 mph - N/A   Partly Cloudy
3:35 PM 14.0 °F 3.9 °F 8.6 °F 79% 29.91 in 10.0 mi SSW 6.9 mph - N/A   Clear
3:55 PM 14.0 °F 3.9 °F 8.6 °F 79% 29.90 in 10.0 mi SW 6.9 mph - N/A   Clear
4:15 PM 14.0 °F 3.9 °F 6.8 °F 73% 29.90 in 10.0 mi SSW 6.9 mph - N/A   Clear
4:35 PM 14.0 °F 3.9 °F 6.8 °F 73% 29.90 in 10.0 mi SSW 6.9 mph - N/A   Clear
4:55 PM 10.4 °F -0.4 °F 6.8 °F 85% 29.90 in 10.0 mi SW 6.9 mph - N/A   Clear
5:15 PM 14.0 °F 3.9 °F 5.0 °F 67% 29.89 in 10.0 mi South 6.9 mph - N/A   Clear
5:35 PM 10.4 °F -1.5 °F 5.0 °F 79% 29.88 in 10.0 mi South 8.1 mph - N/A   Clear
5:55 PM 10.4 °F -1.5 °F 5.0 °F 79% 29.88 in 10.0 mi South 8.1 mph - N/A   Clear
6:15 PM 6.8 °F -4.8 °F 1.4 °F 79% 29.88 in 10.0 mi SSW 6.9 mph - N/A   Clear
6:35 PM 6.8 °F -3.5 °F 3.2 °F 85% 29.87 in 10.0 mi SSW 5.8 mph - N/A   Clear
6:55 PM 3.2 °F -9.1 °F -0.4 °F 85% 29.87 in 10.0 mi SW 6.9 mph - N/A   Clear
7:15 PM 3.2 °F - -0.4 °F 85% 29.86 in 10.0 mi North - - N/A   Clear
7:35 PM 1.4 °F - -2.2 °F 85% 29.86 in 10.0 mi North - - N/A   Clear
7:55 PM 5.0 °F -6.9 °F -0.4 °F 78% 29.86 in 10.0 mi SW 6.9 mph - N/A   Clear
8:15 PM 1.4 °F -11.3 °F -2.2 °F 85% 29.86 in 10.0 mi SW 6.9 mph - N/A   Clear
8:35 PM 5.0 °F -6.9 °F -0.4 °F 78% 29.86 in 10.0 mi SSW 6.9 mph - N/A   Clear
8:55 PM 6.8 °F -5.9 °F 1.4 °F 79% 29.86 in 10.0 mi South 8.1 mph - N/A   Clear
9:15 PM 6.8 °F -6.9 °F 1.4 °F 79% 29.86 in 10.0 mi South 9.2 mph - N/A   Clear
9:35 PM 6.8 °F -6.9 °F 1.4 °F 79% 29.86 in 10.0 mi South 9.2 mph - N/A   Clear
9:55 PM 1.4 °F -11.3 °F -0.4 °F 92% 29.85 in 10.0 mi South 6.9 mph - N/A   Clear
10:15 PM 1.4 °F -11.3 °F -0.4 °F 92% 29.85 in 10.0 mi SSW 6.9 mph - N/A   Clear
10:35 PM 3.2 °F -10.3 °F -0.4 °F 85% 29.85 in 10.0 mi South 8.1 mph - N/A   Clear
10:55 PM 1.4 °F -12.5 °F -0.4 °F 92% 29.84 in 10.0 mi SSW 8.1 mph - N/A   Clear
11:15 PM 1.4 °F -12.5 °F -0.4 °F 92% 29.83 in 10.0 mi South 8.1 mph - N/A   Clear
11:35 PM 1.4 °F -9.9 °F -2.2 °F 85% 29.83 in 10.0 mi SSW 5.8 mph - N/A   Clear
11:55 PM 3.2 °F -10.3 °F -0.4 °F 85% 29.82 in 10.0 mi SSW 8.1 mph - N/A   Clear